Home > Weather > Glendale > Past weeks

Flag for USA Weather for the Past 2 Weeks in Glendale, Arizona, USA

Now
91 °F

Sunny.


Feels Like: 87 °F
Forecast: 67 / 98 °F
Wind: 10 mph from Southwest

Location: Phoenix-Deer Valley Municipal Airport

Current Time: May 3, 2016 at 6:04:16 PM

Latest Report: May 3, 2016 at 4:53 PM


Visibility: 10 mi

Pressure: 29.77 "Hg

Humidity: 11%

Dew Point: 29 °F

Location of GlendaleLocation

Historic Weather in Glendale — Graph

°F

Glendale Temperature Yesterday

Maximum temperature yesterday: 84 °F (at 3:53 PM)
Minimum temperature yesterday: 61 °F (at 2:53 AM)
Average temperature yesterday: 73 °F

High & Low Weather Summary for the Past Weeks

 TemperatureHumidityPressure
High93 °F (Apr 21, 2:53 PM)72% (Apr 30, 5:53 PM)29.96 "Hg (Apr 30, 5:53 PM)
Low54 °F (Apr 26, 5:53 AM)6% (Apr 21, 2:53 PM)29.52 "Hg (Apr 30, 3:53 PM)
Average73 °F23%29.77 "Hg
* Reported Apr 18 4:53 PM — May 3 4:53 PM, Glendale, Weather by CustomWeather, © 2016

Note: Actual official high and low records may vary slightly from our data, if they occured in-between our weather recording intervals... More about our weather records

Advertising

Glendale Weather History for the Previous 24 Hours

Scroll right to see more
 ConditionsComfort  
Time TempWeatherWind HumidityBarometerVisibility
4:53 PM
Tue, May 3
91 °FSunny.10 mph11%29.77 "Hg10 mi
3:53 PM91 °FSunny.9 mph12%29.79 "Hg10 mi
2:53 PM90 °FSunny.8 mph12%29.80 "Hg10 mi
1:53 PM89 °FSunny.6 mph14%29.82 "Hg10 mi
12:53 PM88 °FSunny.7 mph14%29.84 "Hg10 mi
11:53 AM85 °FSunny.6 mph17%29.87 "Hg10 mi
10:53 AM84 °FSunny.8 mph18%29.89 "Hg10 mi
9:53 AM84 °FSunny.7 mph18%29.89 "Hg10 mi
8:53 AM80 °FSunny.No wind21%29.90 "Hg10 mi
7:53 AM74 °FSunny.No wind28%29.90 "Hg10 mi
6:53 AM68 °FSunny.7 mph33%29.89 "Hg10 mi
5:53 AM64 °FSunny.No wind38%29.88 "Hg10 mi
4:53 AM63 °FClear.5 mph40%29.86 "Hg10 mi
3:53 AM65 °FClear.3 mph37%29.85 "Hg10 mi
2:53 AM65 °FClear.5 mph39%29.85 "Hg10 mi
1:53 AM67 °FClear.6 mph36%29.85 "Hg10 mi
12:53 AM69 °FClear.3 mph33%29.87 "Hg10 mi
11:53 PM
Mon, May 2
70 °FClear.No wind32%29.87 "Hg10 mi
10:53 PM71 °FClear.8 mph32%29.87 "Hg10 mi
9:53 PM74 °FClear.14 mph28%29.87 "Hg10 mi
8:53 PM76 °FClear.17 mph25%29.86 "Hg10 mi
7:53 PM78 °FClear.5 mph17%29.84 "Hg10 mi
6:53 PM81 °FSunny.9 mph17%29.83 "Hg10 mi
Weather by CustomWeather, © 2016

See weather overviewHow to use our weather pages